Regional Weather Roundup
Issued by NWS

Home | Current Version | Previous Version | Text Only | Print | Product List | Glossary Off
Versions: 1 2 3 4 5 6 7 8 9 10 11 12 13 14 15 16 17 18 19 20 21 22 23 24 25 26 27 28 29 30 31 32 33 34 35 36 37 38 39 40 41 42 43 44 45 46 47 48 49 50

000
ASUS43 KOAX 270110
RWRNE

WEATHER ROUNDUP FOR NEBRASKA
NATIONAL WEATHER SERVICE OMAHA NE
700 PM CST MON JAN 26 2015

NOTES: SATELLITE DATA IS BEING USED TO AUGMENT CLOUD COVER ABOVE
       12000 FEET.
       "FAIR" INDICATES FEW OR NO CLOUDS BELOW 12,000 FEET WITH NO
       SIGNIFICANT WEATHER AND/OR OBSTRUCTIONS TO VISIBILITY.

  * THESE STATIONS DO NOT REPORT WEATHER SUCH AS RAIN...SNOW OR FOG.

NEZ001>004-019>022-054>056-270200-
NEBRASKA PANHANDLE

CITY           SKY/WX    TMP DP  RH WIND       PRES   REMARKS
SCOTTSBLUFF    CLEAR     50  33  52 W9        30.11S
ALLIANCE       CLEAR     38  31  76 W8        30.08S WCI  32
CHADRON        CLEAR     45  33  63 SW10      30.05S
KIMBALL        CLEAR     52  26  36 NW14      30.15S
SIDNEY         CLEAR     45  28  51 NW10      30.14R
$$

NEZ057>060-069>072-079>082-270200-
SOUTHWEST NEBRASKA

CITY           SKY/WX    TMP DP  RH WIND       PRES   REMARKS
NORTH PLATTE   CLEAR     43  28  55 CALM      30.07R
IMPERIAL       CLEAR     51  29  42 W7        30.10S
LEXINGTON      CLEAR     40  28  63 NW5       30.06R
MCCOOK         CLEAR     53  30  41 W9        30.07S
OGALLALA       CLEAR     47  33  59 W5        30.08S
$$

NEZ005>010-023>029-035>040-094-270200-
NORTH CENTRAL NEBRASKA

CITY           SKY/WX    TMP DP  RH WIND       PRES   REMARKS
VALENTINE      CLEAR     42  30  62 W7        30.02S
AINSWORTH      CLEAR     42  32  66 CALM      30.03S
BROKEN BOW     CLEAR     47  31  53 N8        30.03S
O`NEILL        CLEAR     47  32  56 N7        30.02S
ORD            CLEAR     43  31  62 NW3       30.02R
THEDFORD       CLEAR     46  32  58 CALM      30.06R
$$

NEZ041-046>049-061>064-073>077-083>087-270200-
SOUTH CENTRAL NEBRASKA

CITY           SKY/WX    TMP DP  RH WIND       PRES   REMARKS
GRAND ISLAND   CLEAR     43  32  65 N5        30.04R
AURORA         CLEAR     44  31  60 NW3       30.03R
HASTINGS       CLEAR     49  31  49 CALM      30.03R
HEBRON         CLEAR     50  30  47 NW3       30.03R
HOLDREGE       CLEAR     48  28  45 CALM      30.05R
KEARNEY *      CLEAR     48  30  49 W5        30.05R
YORK           CLEAR     46  32  57 CALM      30.02F
$$

NEZ011>018-030>034-042>045-270200-
NORTHEAST NEBRASKA

CITY           SKY/WX    TMP DP  RH WIND       PRES   REMARKS
NORFOLK        PTCLDY    45  32  60 NW5       30.01R
ALBION         FAIR      38  28  67 NW3       30.02R
BLAIR          CLEAR     48  34  57 NW8       29.99R
COLUMBUS *     CLEAR     37  27  65 N5        30.03R WCI  34
FREMONT        PTCLDY    42  32  67 NW5       30.01S
TEKAMAH        CLEAR     41  33  73 W10       30.00R
WAYNE          PTCLDY    38  32  79 NW8       30.01S WCI  32
$$

NEZ050>053-065>068-078-088>093-270200-
SOUTHEAST NEBRASKA

CITY           SKY/WX    TMP DP  RH WIND       PRES   REMARKS
LINCOLN        CLEAR     47  31  53 NW5       30.02R
OMAHA EPPLEY   PTCLDY    48  34  58 NW12      29.99R
BEATRICE       PTCLDY    38  26  61 NW6       30.02R WCI  33
FALLS CITY     CLEAR     44  30  57 NW7       29.99R
NEBRASKA CITY  CLEAR     47  28  47 N9        30.00R
PLATTSMOUTH    CLEAR     42  30  62 NW7       30.00R
$$

NEZ044-045-051>053-067-270200-
OMAHA AREA

CITY           SKY/WX    TMP DP  RH WIND       PRES   REMARKS
OMAHA EPPLEY   PTCLDY    48  34  58 NW12      29.99R
BLAIR          CLEAR     48  34  57 NW8       29.99R
FREMONT        PTCLDY    42  32  67 NW5       30.01S
MILLARD        CLEAR     49  34  55 NW8       30.00R
OFFUTT AFB     CLEAR     42  32  66 NW7       29.99R
PLATTSMOUTH    CLEAR     42  30  62 NW7       30.00R
WAHOO          FAIR      43  29  58 NW7       30.01R
$$



USA.gov is the U.S. government's official web portal to all federal, state and local government web resources and services.